Helicity
32 22 20 17 22 43 58 68 73 73 71 71 74 72 57 15 -1 3 53 20 67 56 37 42 36 31 26 30 33 27 37 36 31
27 37 35 27 28 38 52 67 67 72 74 73 78 71 56 32 17 25 33 26 66 37 37 33 42 34 28 30 27 18 15 14 19
30 38 50 44 41 47 50 59 68 69 69 70 78 78 54 44 23 47 43 106 57 33 43 45 32 35 31 17 22 20 16 19 20
47 41 40 49 44 38 47 57 63 69 67 67 69 91 65 28 14 47 57 117 67 36 53 43 38 33 33 11 17 16 13 12 12
43 41 51 40 56 48 47 54 62 71 72 69 68 83 77 44 27 53 56 133 83 41 47 53 36 47 32 25 16 12 6 1 -0
101 87 69 59 47 47 52 49 61 61 80 83 83 90 73 52 56 52 132 141 98 60 53 62 48 45 41 26 23 11 8 -1 -2
87 76 82 84 77 76 68 57 69 78 73 99 102 115 78 53 57 79 159 142 99 74 61 77 57 48 64 38 28 16 9 3 2
82 90 79 81 99 116 119 119 107 94 100 83 152 131 67 68 77 79 183 148 98 78 68 80 87 67 71 58 36 23 19 12 5
98 115 138 140 106 89 116 134 115 96 85 94 92 148 137 103 82 103 193 170 106 75 72 70 86 85 66 60 54 41 28 17 11
110 125 138 151 171 171 141 110 120 123 92 98 100 103 135 134 128 115 168 187 151 92 71 67 69 74 78 60 53 65 60 43 20
115 125 126 126 142 160 182 174 144 116 113 113 114 110 116 132 139 145 154 157 158 126 78 70 69 64 66 68 59 81 72 67 43
138 145 146 139 146 137 157 174 202 197 177 129 107 122 108 141 148 162 177 183 156 151 106 85 84 73 66 66 74 78 81 77 71
111 130 140 134 150 166 171 171 176 189 199 189 150 153 135 119 117 145 168 171 197 163 118 125 108 98 82 71 68 82 93 89 93
90 104 109 109 132 148 157 168 174 180 189 205 217 201 154 166 147 124 127 132 157 173 154 89 131 117 102 91 79 76 75 90 88
78 85 89 90 104 117 132 138 165 199 203 190 200 216 227 218 190 147 104 117 147 144 129 221 157 139 123 105 103 84 90 86 74
80 93 90 82 93 101 110 123 137 140 153 180 182 181 194 204 212 214 172 110 93 151 167 209 251 211 106 132 114 99 88 90 96
92 111 120 134 161 157 156 147 142 143 162 178 184 164 163 148 124 125 126 123 157 108 120 164 203 224 233 199 152 126 141 102 142
89 102 114 123 147 158 144 135 121 118 144 157 195 197 146 157 189 167 127 86 102 125 141 118 142 177 172 225 234 216 172 134 118
74 83 83 113 156 166 148 130 102 94 103 122 131 151 152 138 110 172 202 243 267 159 158 151 129 122 149 135 173 203 211 192 119
66 63 39 47 94 105 112 102 92 83 94 104 107 117 131 112 136 102 112 123 138 205 246 184 155 117 117 149 185 155 214 134 150
Wind_Speed
14 16 18 26 29 16 16 16 18 19 21 22 23 24 24 25 27 34 30 37 26 27 20 22 22 22 24 26 25 27 28 28 29
14 9 15 22 25 17 12 12 13 14 15 17 19 20 20 18 19 29 30 29 25 23 20 20 22 21 21 23 23 23 24 26 26
29 17 15 21 24 20 14 10 11 10 9 10 12 13 14 14 16 21 26 25 27 21 17 14 18 18 19 19 18 20 21 24 25
41 36 24 18 21 20 17 15 13 12 8 5 4 6 8 8 12 11 13 16 17 14 10 16 17 16 15 16 18 19 20 20 20
45 42 36 28 22 24 25 20 17 14 13 10 7 5 8 5 4 7 8 13 11 8 6 6 11 13 16 13 18 18 18 17 18
50 48 48 46 39 29 31 30 26 23 20 18 14 13 15 10 10 9 10 11 11 6 5 3 3 4 10 15 14 17 18 17 18
55 53 51 52 48 43 39 37 34 32 31 26 19 20 19 17 17 17 13 10 8 6 5 4 2 2 1 2 10 14 16 19 20
57 55 53 51 50 51 49 44 40 36 34 34 29 25 24 27 26 24 19 16 14 10 9 9 8 7 7 7 6 8 14 14 20
59 59 60 60 57 53 52 52 48 44 43 40 41 33 33 35 40 36 26 25 24 19 17 16 15 14 12 13 12 11 10 18 20
61 61 61 62 63 63 60 56 55 55 51 50 47 45 44 41 41 45 35 30 30 29 26 24 23 21 19 17 17 17 15 14 16
63 63 62 61 60 62 65 65 62 58 55 58 57 57 56 52 52 51 49 39 36 37 37 35 32 30 28 25 23 22 21 20 18
66 67 66 65 66 66 66 66 68 68 66 62 58 60 60 58 57 55 54 52 44 43 43 43 41 39 37 33 30 28 27 26 25
63 64 65 66 68 69 69 68 69 69 70 68 65 66 62 62 63 58 56 56 55 49 47 47 48 45 43 41 38 37 34 32 31
62 64 65 65 66 67 69 71 71 73 73 74 74 70 67 68 68 69 68 64 62 63 53 50 51 55 50 48 45 45 44 42 39
63 64 65 66 67 68 68 70 71 73 73 74 76 74 75 75 73 72 72 71 70 71 72 61 59 56 58 58 55 55 51 52 49
67 66 66 66 68 69 70 72 76 74 70 78 79 81 81 84 83 80 78 77 76 78 79 74 66 65 64 66 65 62 55 60 55
67 68 68 67 69 70 68 70 72 72 69 73 76 86 80 74 72 76 80 85 80 77 75 76 77 76 72 72 70 70 68 67 71
65 66 66 63 62 63 61 60 62 64 61 60 59 71 74 71 65 67 69 71 74 79 77 75 78 82 82 78 76 72 73 75 72
60 60 62 60 54 60 58 57 57 56 59 56 55 60 70 84 89 77 81 79 78 75 72 74 79 80 83 87 86 84 82 75 76
61 59 56 53 50 44 39 48 51 53 54 53 56 59 60 60 69 91 75 71 78 81 76 77 79 81 83 88 89 93 87 84 83
Wind_Direction
51 48 36 9 4 81 89 85 86 94 103 96 96 78 79 39 17 347 354 324 8 4 34 23 22 20 25 23 21 21 21 15 11
20 57 28 9 3 25 69 66 67 82 94 100 95 86 85 104 46 359 347 351 356 352 3 10 13 23 25 25 30 32 25 20 18
341 352 354 351 351 357 10 27 26 39 65 83 90 82 87 96 149 22 1 357 347 1 4 14 2 1 8 14 32 27 29 21 16
321 325 331 335 338 342 345 347 350 356 9 33 68 59 54 108 148 70 62 20 16 21 21 356 0 6 7 2 1 7 12 20 25
315 316 320 320 321 325 327 330 328 328 331 329 322 326 342 353 160 30 30 26 44 100 61 17 360 349 344 355 345 352 357 6 12
312 312 310 312 315 314 316 317 317 315 313 311 305 306 316 313 325 331 346 350 355 17 21 128 70 26 334 331 335 335 339 345 349
309 307 307 305 306 307 306 306 306 308 308 306 291 299 299 300 305 313 316 314 318 318 318 309 224 198 252 273 319 321 324 326 328
308 307 308 308 307 304 302 301 299 297 299 301 297 292 293 299 301 301 296 294 293 274 277 283 266 274 262 235 235 286 307 315 316
306 305 304 303 304 304 303 301 299 296 295 293 295 291 291 295 300 300 289 286 286 275 271 274 268 262 256 238 241 237 250 297 304
306 305 304 303 301 300 301 301 299 296 293 292 289 289 289 289 290 296 291 281 281 276 270 271 271 261 260 254 251 249 243 252 279
307 306 305 304 303 301 298 297 298 297 295 292 289 289 289 287 287 289 291 283 279 278 273 270 271 270 262 262 261 258 256 256 258
308 306 305 303 302 300 299 297 295 294 294 292 292 289 287 287 285 284 285 285 276 277 273 270 271 270 270 263 261 262 260 259 260
312 309 305 304 302 300 298 296 295 292 291 291 290 289 289 287 287 286 283 283 284 277 275 269 268 266 266 265 262 263 262 261 261
316 313 310 308 305 301 298 296 293 292 291 289 289 289 287 286 287 286 285 283 283 284 279 272 268 267 263 262 263 266 265 266 265
319 316 313 311 307 304 301 297 295 293 292 291 289 289 288 287 285 284 284 283 282 281 281 279 275 267 263 265 264 267 268 267 267
320 317 314 312 309 306 304 301 297 294 293 291 290 289 288 286 286 286 285 282 281 279 278 276 278 278 270 264 264 265 264 268 267
324 320 316 313 310 307 306 303 301 297 295 291 293 291 292 290 287 284 283 282 282 279 277 276 274 274 277 270 263 263 263 266 269
330 326 321 318 315 313 311 308 305 303 301 296 295 296 293 299 299 295 290 285 284 282 279 277 274 273 273 274 268 264 261 261 264
339 336 330 325 324 316 314 311 308 307 304 303 299 296 297 295 295 294 292 293 293 288 284 281 280 276 274 272 269 269 264 260 261
342 345 345 342 339 335 333 323 316 311 309 308 307 303 303 302 299 294 299 297 293 290 291 287 284 280 277 274 271 269 267 263 265